Phoenix, AZ

6:10 AM MST on August 18, 2017 (GMT -0700)
Phoenix Sky Harbor International

Weather History for KPHX - April, 2014

Change the Weather History Date:

Thursday, April 3, 2014

  Actual Average Record
Temperature  
Mean Temperature 62 °F 69 °F  
Max Temperature 73 °F 82 °F 97 °F (1943)
Min Temperature 50 °F 57 °F 38 °F (1906)
Degree Days  
Heating Degree Days 3 1  
Month to date heating degree days 5 3  
Since 1 July heating degree days 546 917  
Cooling Degree Days 0 5  
Month to date cooling degree days 3 15  
Year to date cooling degree days 202 119  
Growing Degree Days 11 (Base 50)    
Moisture  
Dew Point 27 °F    
Average Humidity 35    
Maximum Humidity 54    
Minimum Humidity 15    
Precipitation  
Precipitation 0.00 in 0.02 in 0.69 in (1965)
Month to date precipitation 0.00 0.05  
Year to date precipitation 0.99 2.87  
Snow  
Snow 0.00 in - - ()
Month to date snowfall 0.0  
Year to date snowfall 0.0  
Since 1 July snowfall 0.0  
Snow Depth 0.00 in    
Sea Level Pressure  
Sea Level Pressure 29.97 in    
Wind  
Wind Speed 5 mph (NW)    
Max Wind Speed 13 mph    
Max Gust Speed 17 mph    
Visibility 10 miles    
Events      
T = Trace of Precipitation, MM = Missing Value Source: NWS Daily Summary

Daily Weather History Graph

Daily Weather History Graph

Search for Another Location

Airport or City:

Trip Planner

Search our weather history database for the weather conditions in past years. The results will help you decide how hot, cold, wet, or windy it might be!

Date:

Astronomy

Apr. 03, 2014 Rise Set
Actual Time 6:12 AM MST 6:50 PM MST
Civil Twilight 5:47 AM MST 7:15 PM MST
Nautical Twilight 5:18 AM MST 7:44 PM MST
Astronomical Twilight 4:48 AM MST 8:14 PM MST
Moon 8:54 AM MST (4/3) 11:02 PM MST (4/3)
Length of Visible Light 13h 27m
Length of Day
12h 37m
Waxing Crescent, 18% of the Moon is Illuminated
Apr 3
Waxing Crescent
Apr 7
First Quarter
Apr 15
Full
Apr 22
Last Quarter
Apr 28
New

Hourly Weather History & Observations

Time (MST) Temp. Dew Point Humidity Pressure Visibility Wind Dir Wind Speed Gust Speed Precip Events Conditions
12:51 AM 59.0 °F 26.1 °F 28% 29.90 in 10.0 mi West 5.8 mph - N/A   Partly Cloudy
1:51 AM 57.9 °F 26.1 °F 30% 29.91 in 10.0 mi NW 8.1 mph - N/A   Partly Cloudy
2:51 AM 55.9 °F 28.0 °F 34% 29.92 in 10.0 mi NW 4.6 mph - N/A   Clear
3:51 AM 53.1 °F 28.0 °F 38% 29.93 in 10.0 mi SW 4.6 mph - N/A   Clear
4:51 AM 54.0 °F 27.0 °F 35% 29.95 in 10.0 mi WNW 5.8 mph - N/A   Clear
5:51 AM 51.1 °F 35.1 °F 54% 29.96 in 10.0 mi East 5.8 mph - N/A   Partly Cloudy
6:51 AM 52.0 °F 35.1 °F 53% 30.00 in 10.0 mi East 3.5 mph - N/A   Clear
7:51 AM 55.0 °F 35.1 °F 47% 30.01 in 10.0 mi East 8.1 mph - N/A   Clear
8:51 AM 57.9 °F 33.1 °F 39% 30.03 in 10.0 mi Calm Calm - N/A   Clear
9:51 AM 60.1 °F 30.9 °F 33% 30.04 in 10.0 mi NNE 5.8 mph - N/A   Partly Cloudy
10:51 AM 60.8 °F 30.2 °F 31% 30.07 in 10.0 mi Variable 4.6 mph - N/A   Partly Cloudy
11:51 AM 66.9 °F 28.0 °F 23% 30.04 in 10.0 mi Variable 5.8 mph - N/A   Partly Cloudy
12:51 PM 66.9 °F 25.0 °F 21% 30.02 in 10.0 mi West 3.5 mph - N/A   Partly Cloudy
1:51 PM 70.0 °F 25.0 °F 18% 30.00 in 10.0 mi NNE 6.9 mph - N/A   Partly Cloudy
2:51 PM 70.0 °F 21.9 °F 16% 29.99 in 10.0 mi WNW 6.9 mph - N/A   Partly Cloudy
3:51 PM 71.1 °F 21.0 °F 15% 29.97 in 10.0 mi Variable 4.6 mph - N/A   Partly Cloudy
4:51 PM 71.1 °F 21.0 °F 15% 29.96 in 10.0 mi Variable 4.6 mph - N/A   Partly Cloudy
5:51 PM 71.1 °F 23.0 °F 16% 29.95 in 10.0 mi Calm Calm - N/A   Partly Cloudy
6:51 PM 70.0 °F 21.9 °F 16% 29.94 in 10.0 mi NNW 4.6 mph - N/A   Scattered Clouds
7:51 PM 68.0 °F 25.0 °F 20% 29.95 in 10.0 mi SW 5.8 mph - N/A   Partly Cloudy
8:51 PM 66.0 °F 28.0 °F 24% 29.96 in 10.0 mi SSW 3.5 mph - N/A   Clear
9:51 PM 64.9 °F 26.1 °F 23% 29.96 in 10.0 mi Calm Calm - N/A   Clear
10:51 PM 64.9 °F 25.0 °F 22% 29.95 in 10.0 mi Calm Calm - N/A   Partly Cloudy
11:51 PM 62.1 °F 28.0 °F 28% 29.95 in 10.0 mi East 4.6 mph - N/A   Partly Cloudy